(°C)
19°
22°
24°
26°
28°
29°
29°
(°C)
19°
22°
23°
25°
27°
28°
29°
J
J
JZ
JZ
JZ
JZ
ZJZ
(km/h)
3-10
3-12
6-12
7-14
7-16
7-18
7-18
(mm)
0
0
0
0
0
0
0
(%)
0
0
0
0
0
0
0

Sluneční výška

/ 11.4°
sun-icon
UV 5
04:35
20:23
Ubývající měsíc (224°)
22:20
08:15

METAR pro 51.82°S 39.23°V (UUOO)

Čas Podmínky Teplota/
Rosný bod
Vítr Viditelnost Počasí Oblaky Tlak Změna Nezpracované
VFR 18°C / 10°C variable 0kt >10km - Clouds and Visibility OK 1022 No Significant change. Runway 12: Clear and dry, 1-10% contamination with <1mm, friction coefficient 0.70. UUOO 270230Z 00000MPS CAVOK 18/10 Q1022 R12/010070 NOSIG RMK QFE752
VFR 16°C / 9°C 240º 4kt >10km - Clouds and Visibility OK 1022 No Significant change. Runway 12: Clear and dry, 1-10% contamination with <1mm, friction coefficient 0.70. UUOO 270200Z 24002MPS CAVOK 16/09 Q1022 R12/010070 NOSIG RMK QFE752
VFR 16°C / 10°C variable 0kt >10km - Clouds and Visibility OK 1022 No Significant change. Runway 12: Clear and dry, 1-10% contamination with <1mm, friction coefficient 0.70. UUOO 270130Z 00000MPS CAVOK 16/10 Q1022 R12/010070 NOSIG RMK QFE752
VFR 16°C / 10°C variable 0kt >10km - Clouds and Visibility OK 1022 No Significant change. Runway 12: Clear and dry, 1-10% contamination with <1mm, friction coefficient 0.70. UUOO 270100Z 00000MPS CAVOK 16/10 Q1022 R12/010070 NOSIG RMK QFE752
VFR 16°C / 10°C 240º 2kt >10km - Clouds and Visibility OK 1022 No Significant change. Runway 12: Clear and dry, 1-10% contamination with <1mm, friction coefficient 0.70. UUOO 270030Z 24001MPS CAVOK 16/10 Q1022 R12/010070 NOSIG RMK QFE752
VFR 16°C / 10°C variable 0kt >10km - Clouds and Visibility OK 1022 No Significant change. Runway 12: Clear and dry, 1-10% contamination with <1mm, friction coefficient 0.70. UUOO 270000Z 00000MPS CAVOK 16/10 Q1022 R12/010070 NOSIG RMK QFE752
VFR 16°C / 11°C variable 0kt >10km - Clouds and Visibility OK 1022 No Significant change. Runway 12: Clear and dry, 1-10% contamination with <1mm, friction coefficient 0.70. UUOO 262330Z 00000MPS CAVOK 16/11 Q1022 R12/010070 NOSIG RMK QFE752
VFR 16°C / 11°C variable 0kt >10km - Clouds and Visibility OK 1022 No Significant change. Runway 12: Clear and dry, 1-10% contamination with <1mm, friction coefficient 0.70. UUOO 262300Z 00000MPS CAVOK 16/11 Q1022 R12/010070 NOSIG RMK QFE752
VFR 17°C / 11°C variable 0kt >10km - Clouds and Visibility OK 1022 No Significant change. Runway 12: Clear and dry, 1-10% contamination with <1mm, friction coefficient 0.70. UUOO 262230Z 00000MPS CAVOK 17/11 Q1022 R12/010070 NOSIG RMK QFE752
VFR 17°C / 11°C variable 0kt >10km - Clouds and Visibility OK 1022 No Significant change. Runway 12: Clear and dry, 1-10% contamination with <1mm, friction coefficient 0.70. UUOO 262200Z 00000MPS CAVOK 17/11 Q1022 R12/010070 NOSIG RMK QFE752
VFR 17°C / 11°C variable 0kt >10km - Clouds and Visibility OK 1022 No Significant change. Runway 12: Clear and dry, 1-10% contamination with <1mm, friction coefficient 0.70. UUOO 262130Z 00000MPS CAVOK 17/11 Q1022 R12/010070 NOSIG RMK QFE752
VFR 18°C / 11°C variable 0kt >10km - Clouds and Visibility OK 1022 No Significant change. Runway 12: Clear and dry, 1-10% contamination with <1mm, friction coefficient 0.70. UUOO 262100Z 00000MPS CAVOK 18/11 Q1022 R12/010070 NOSIG RMK QFE752
VFR 18°C / 11°C variable 0kt >10km - Clouds and Visibility OK 1022 No Significant change. Runway 12: Clear and dry, 1-10% contamination with <1mm, friction coefficient 0.70. UUOO 262030Z 00000MPS CAVOK 18/11 Q1022 R12/010070 NOSIG RMK QFE752
VFR 20°C / 11°C variable 0kt >10km - Clouds and Visibility OK 1021 No Significant change. Runway 12: Clear and dry, 1-10% contamination with <1mm, friction coefficient 0.70. UUOO 262000Z 00000MPS CAVOK 20/11 Q1021 R12/010070 NOSIG RMK QFE752
VFR 22°C / 10°C variable 0kt >10km - Clouds and Visibility OK 1021 No Significant change. Runway 12: Clear and dry, 1-10% contamination with <1mm, friction coefficient 0.70. UUOO 261930Z 00000MPS CAVOK 22/10 Q1021 R12/010070 NOSIG RMK QFE752
VFR 20°C / 11°C variable 0kt >10km - Clouds and Visibility OK 1021 No Significant change. Runway 12: Clear and dry, 1-10% contamination with <1mm, friction coefficient 0.70. UUOO 261900Z 00000MPS CAVOK 20/11 Q1021 R12/010070 NOSIG RMK QFE752
VFR 21°C / 10°C variable 0kt >10km - Clouds and Visibility OK 1021 No Significant change. Runway 12: Clear and dry, 1-10% contamination with <1mm, friction coefficient 0.70. UUOO 261830Z 00000MPS CAVOK 21/10 Q1021 R12/010070 NOSIG RMK QFE752
VFR 22°C / 10°C 120º 4kt >10km - Clouds and Visibility OK 1021 No Significant change. Runway 12: Clear and dry, 1-10% contamination with <1mm, friction coefficient 0.70. UUOO 261800Z 12002MPS CAVOK 22/10 Q1021 R12/010070 NOSIG RMK QFE752
VFR 23°C / 11°C 120º 4kt >10km - Clouds and Visibility OK 1021 No Significant change. Runway 12: Clear and dry, 1-10% contamination with <1mm, friction coefficient 0.70. UUOO 261730Z 12002MPS CAVOK 23/11 Q1021 R12/010070 NOSIG RMK QFE752
VFR 26°C / 8°C 140º 4kt >10km - Clouds and Visibility OK 1021 No Significant change. Runway 12: Clear and dry, 1-10% contamination with <1mm, friction coefficient 0.70. UUOO 261700Z 14002MPS CAVOK 26/08 Q1021 R12/010070 NOSIG RMK QFE752
VFR 27°C / 9°C variable 2kt >10km - Clouds and Visibility OK 1021 No Significant change. Runway 12: Clear and dry, 1-10% contamination with <1mm, friction coefficient 0.70. UUOO 261630Z VRB01MPS CAVOK 27/09 Q1021 R12/010070 NOSIG RMK QFE752
VFR 27°C / 7°C 210º 4kt >10km - Clouds and Visibility OK 1021 No Significant change. Runway 12: Clear and dry, 1-10% contamination with <1mm, friction coefficient 0.70. UUOO 261600Z 21002MPS CAVOK 27/07 Q1021 R12/010070 NOSIG RMK QFE752
VFR 28°C / 7°C 230º 4kt >10km - Clouds and Visibility OK 1021 No Significant change. Runway 12: Clear and dry, 1-10% contamination with <1mm, friction coefficient 0.70. UUOO 261530Z 23002MPS CAVOK 28/07 Q1021 R12/010070 NOSIG RMK QFE752
VFR 29°C / 7°C 270º variable 230º to 320º 4kt >10km - Clouds and Visibility OK 1021 No Significant change. Runway 12: Clear and dry, 1-10% contamination with <1mm, friction coefficient 0.70. UUOO 261500Z 27002MPS 230V320 CAVOK 29/07 Q1021 R12/010070 NOSIG RMK QFE752

VFR

18°C / 10°C

[Víc]
Vítr variable 0kt
Viditelnost >10km
Počasí -
Oblaky Clouds and Visibility OK
Tlak 1022
Změna No Significant change. Runway 12: Clear and dry, 1-10% contamination with <1mm, friction coefficient 0.70.
Nezpracované UUOO 270230Z 00000MPS CAVOK 18/10 Q1022 R12/010070 NOSIG RMK QFE752

VFR

16°C / 9°C

[Víc]
Vítr 240º 4kt
Viditelnost >10km
Počasí -
Oblaky Clouds and Visibility OK
Tlak 1022
Změna No Significant change. Runway 12: Clear and dry, 1-10% contamination with <1mm, friction coefficient 0.70.
Nezpracované UUOO 270200Z 24002MPS CAVOK 16/09 Q1022 R12/010070 NOSIG RMK QFE752

VFR

16°C / 10°C

[Víc]
Vítr variable 0kt
Viditelnost >10km
Počasí -
Oblaky Clouds and Visibility OK
Tlak 1022
Změna No Significant change. Runway 12: Clear and dry, 1-10% contamination with <1mm, friction coefficient 0.70.
Nezpracované UUOO 270130Z 00000MPS CAVOK 16/10 Q1022 R12/010070 NOSIG RMK QFE752

VFR

16°C / 10°C

[Víc]
Vítr variable 0kt
Viditelnost >10km
Počasí -
Oblaky Clouds and Visibility OK
Tlak 1022
Změna No Significant change. Runway 12: Clear and dry, 1-10% contamination with <1mm, friction coefficient 0.70.
Nezpracované UUOO 270100Z 00000MPS CAVOK 16/10 Q1022 R12/010070 NOSIG RMK QFE752

VFR

16°C / 10°C

[Víc]
Vítr 240º 2kt
Viditelnost >10km
Počasí -
Oblaky Clouds and Visibility OK
Tlak 1022
Změna No Significant change. Runway 12: Clear and dry, 1-10% contamination with <1mm, friction coefficient 0.70.
Nezpracované UUOO 270030Z 24001MPS CAVOK 16/10 Q1022 R12/010070 NOSIG RMK QFE752

VFR

16°C / 10°C

[Víc]
Vítr variable 0kt
Viditelnost >10km
Počasí -
Oblaky Clouds and Visibility OK
Tlak 1022
Změna No Significant change. Runway 12: Clear and dry, 1-10% contamination with <1mm, friction coefficient 0.70.
Nezpracované UUOO 270000Z 00000MPS CAVOK 16/10 Q1022 R12/010070 NOSIG RMK QFE752

VFR

16°C / 11°C

[Víc]
Vítr variable 0kt
Viditelnost >10km
Počasí -
Oblaky Clouds and Visibility OK
Tlak 1022
Změna No Significant change. Runway 12: Clear and dry, 1-10% contamination with <1mm, friction coefficient 0.70.
Nezpracované UUOO 262330Z 00000MPS CAVOK 16/11 Q1022 R12/010070 NOSIG RMK QFE752

VFR

16°C / 11°C

[Víc]
Vítr variable 0kt
Viditelnost >10km
Počasí -
Oblaky Clouds and Visibility OK
Tlak 1022
Změna No Significant change. Runway 12: Clear and dry, 1-10% contamination with <1mm, friction coefficient 0.70.
Nezpracované UUOO 262300Z 00000MPS CAVOK 16/11 Q1022 R12/010070 NOSIG RMK QFE752

VFR

17°C / 11°C

[Víc]
Vítr variable 0kt
Viditelnost >10km
Počasí -
Oblaky Clouds and Visibility OK
Tlak 1022
Změna No Significant change. Runway 12: Clear and dry, 1-10% contamination with <1mm, friction coefficient 0.70.
Nezpracované UUOO 262230Z 00000MPS CAVOK 17/11 Q1022 R12/010070 NOSIG RMK QFE752

VFR

17°C / 11°C

[Víc]
Vítr variable 0kt
Viditelnost >10km
Počasí -
Oblaky Clouds and Visibility OK
Tlak 1022
Změna No Significant change. Runway 12: Clear and dry, 1-10% contamination with <1mm, friction coefficient 0.70.
Nezpracované UUOO 262200Z 00000MPS CAVOK 17/11 Q1022 R12/010070 NOSIG RMK QFE752

VFR

17°C / 11°C

[Víc]
Vítr variable 0kt
Viditelnost >10km
Počasí -
Oblaky Clouds and Visibility OK
Tlak 1022
Změna No Significant change. Runway 12: Clear and dry, 1-10% contamination with <1mm, friction coefficient 0.70.
Nezpracované UUOO 262130Z 00000MPS CAVOK 17/11 Q1022 R12/010070 NOSIG RMK QFE752

VFR

18°C / 11°C

[Víc]
Vítr variable 0kt
Viditelnost >10km
Počasí -
Oblaky Clouds and Visibility OK
Tlak 1022
Změna No Significant change. Runway 12: Clear and dry, 1-10% contamination with <1mm, friction coefficient 0.70.
Nezpracované UUOO 262100Z 00000MPS CAVOK 18/11 Q1022 R12/010070 NOSIG RMK QFE752

VFR

18°C / 11°C

[Víc]
Vítr variable 0kt
Viditelnost >10km
Počasí -
Oblaky Clouds and Visibility OK
Tlak 1022
Změna No Significant change. Runway 12: Clear and dry, 1-10% contamination with <1mm, friction coefficient 0.70.
Nezpracované UUOO 262030Z 00000MPS CAVOK 18/11 Q1022 R12/010070 NOSIG RMK QFE752

VFR

20°C / 11°C

[Víc]
Vítr variable 0kt
Viditelnost >10km
Počasí -
Oblaky Clouds and Visibility OK
Tlak 1021
Změna No Significant change. Runway 12: Clear and dry, 1-10% contamination with <1mm, friction coefficient 0.70.
Nezpracované UUOO 262000Z 00000MPS CAVOK 20/11 Q1021 R12/010070 NOSIG RMK QFE752

VFR

22°C / 10°C

[Víc]
Vítr variable 0kt
Viditelnost >10km
Počasí -
Oblaky Clouds and Visibility OK
Tlak 1021
Změna No Significant change. Runway 12: Clear and dry, 1-10% contamination with <1mm, friction coefficient 0.70.
Nezpracované UUOO 261930Z 00000MPS CAVOK 22/10 Q1021 R12/010070 NOSIG RMK QFE752

VFR

20°C / 11°C

[Víc]
Vítr variable 0kt
Viditelnost >10km
Počasí -
Oblaky Clouds and Visibility OK
Tlak 1021
Změna No Significant change. Runway 12: Clear and dry, 1-10% contamination with <1mm, friction coefficient 0.70.
Nezpracované UUOO 261900Z 00000MPS CAVOK 20/11 Q1021 R12/010070 NOSIG RMK QFE752

VFR

21°C / 10°C

[Víc]
Vítr variable 0kt
Viditelnost >10km
Počasí -
Oblaky Clouds and Visibility OK
Tlak 1021
Změna No Significant change. Runway 12: Clear and dry, 1-10% contamination with <1mm, friction coefficient 0.70.
Nezpracované UUOO 261830Z 00000MPS CAVOK 21/10 Q1021 R12/010070 NOSIG RMK QFE752

VFR

22°C / 10°C

[Víc]
Vítr 120º 4kt
Viditelnost >10km
Počasí -
Oblaky Clouds and Visibility OK
Tlak 1021
Změna No Significant change. Runway 12: Clear and dry, 1-10% contamination with <1mm, friction coefficient 0.70.
Nezpracované UUOO 261800Z 12002MPS CAVOK 22/10 Q1021 R12/010070 NOSIG RMK QFE752

VFR

23°C / 11°C

[Víc]
Vítr 120º 4kt
Viditelnost >10km
Počasí -
Oblaky Clouds and Visibility OK
Tlak 1021
Změna No Significant change. Runway 12: Clear and dry, 1-10% contamination with <1mm, friction coefficient 0.70.
Nezpracované UUOO 261730Z 12002MPS CAVOK 23/11 Q1021 R12/010070 NOSIG RMK QFE752

VFR

26°C / 8°C

[Víc]
Vítr 140º 4kt
Viditelnost >10km
Počasí -
Oblaky Clouds and Visibility OK
Tlak 1021
Změna No Significant change. Runway 12: Clear and dry, 1-10% contamination with <1mm, friction coefficient 0.70.
Nezpracované UUOO 261700Z 14002MPS CAVOK 26/08 Q1021 R12/010070 NOSIG RMK QFE752

VFR

27°C / 9°C

[Víc]
Vítr variable 2kt
Viditelnost >10km
Počasí -
Oblaky Clouds and Visibility OK
Tlak 1021
Změna No Significant change. Runway 12: Clear and dry, 1-10% contamination with <1mm, friction coefficient 0.70.
Nezpracované UUOO 261630Z VRB01MPS CAVOK 27/09 Q1021 R12/010070 NOSIG RMK QFE752

VFR

27°C / 7°C

[Víc]
Vítr 210º 4kt
Viditelnost >10km
Počasí -
Oblaky Clouds and Visibility OK
Tlak 1021
Změna No Significant change. Runway 12: Clear and dry, 1-10% contamination with <1mm, friction coefficient 0.70.
Nezpracované UUOO 261600Z 21002MPS CAVOK 27/07 Q1021 R12/010070 NOSIG RMK QFE752

VFR

28°C / 7°C

[Víc]
Vítr 230º 4kt
Viditelnost >10km
Počasí -
Oblaky Clouds and Visibility OK
Tlak 1021
Změna No Significant change. Runway 12: Clear and dry, 1-10% contamination with <1mm, friction coefficient 0.70.
Nezpracované UUOO 261530Z 23002MPS CAVOK 28/07 Q1021 R12/010070 NOSIG RMK QFE752

VFR

29°C / 7°C

[Víc]
Vítr 270º variable 230º to 320º 4kt
Viditelnost >10km
Počasí -
Oblaky Clouds and Visibility OK
Tlak 1021
Změna No Significant change. Runway 12: Clear and dry, 1-10% contamination with <1mm, friction coefficient 0.70.
Nezpracované UUOO 261500Z 27002MPS 230V320 CAVOK 29/07 Q1021 R12/010070 NOSIG RMK QFE752

TAF pro 51.82°S 39.23°V (UUOO)

From till


From till Wind 250º 6kt. Visibility 10km or more. Scattered Clouds 4000ft.

Nezpracované: TAF UUOO 270200Z 2703/2712 25003MPS 9999 SCT040

Aktuální snímky ze satelitu a srážky pro 51.82°S 39.23°V

Značka polohy je umístěna na 51.82°S 39.23°V. [Víc]

Satelitní snímek v reálném čase kombinuje viditelné světlo během dne s infračerveným zářením během noci. V noci není obraz tmavý, protože infračervené záření dokáže detekovat teplotní rozdíly. Nízká oblačnost a mlha se bohužel těžko odlišují od pozemních teplot, a proto mohou být během noci téměř neviditelné. Satelitní snímky z Meteosatu pro Evropu jsou aktualizovány v reálném čase každých 5 minut. Snímky z GOES-16/GOES-17 (Severní a Jižní Amerika) a Himawari (Asie) jsou aktualizovány) každých 10 minut.

Copyright 2021 EUMETSAT / meteoblue. / Copyright 2021 meteoblue

Radar a krátkodobá předpověď srážek pro 51.82°S 39.23°V

Mrholení
Slabé
Mírná
Silné
Velmi silné
Kroupy

Značka lokality je umístněna na 51.82°S 39.23°V. Tato animace ukazuje srážky zaznamenané radarem za poslední hodinu a také 1h předpověď. Mrholení nebo slabé sněžení mohou být pro radar neviditelné. Intenzita srážek používá barevní kód od světle modré po tmavě fialovou.